FW7476 Weather Reports


Display with metric or nautical units.
time (UTC)temp
F
wind
direction
speed
MPH
gust
MPH
rain 1hr
in
rain 24hr
in
rain mn
in
humidity
%
barometer
mb
20211023164710 44 267 4.0 13.0 0.00 0.00 0.00 52 1007.3
20211023163114 43 289 2.0 10.0 0.00 0.00 0.00 54 1007.7
20211023161638 43 0 2.0 9.0 0.00 0.00 0.00 56 1008.0
20211023160152 43 294 5.0 11.0 0.00 0.00 0.00 54 1008.6
20211023154607 43 290 3.0 12.0 0.00 0.00 0.00 56 1008.8
20211023153124 43 310 5.0 10.0 0.00 0.00 0.00 57 1008.8
20211023151713 42 360 1.0 11.0 0.00 0.00 0.00 59 1008.7
20211023150127 41 360 2.0 11.0 0.00 0.00 0.00 59 1008.7
20211023144645 41 360 3.0 9.0 0.00 0.00 0.00 60 1009.0
20211023143119 41 360 4.0 9.0 0.00 0.00 0.00 60 1009.2
20211023141608 41 360 4.0 8.0 0.00 0.00 0.00 63 1009.2
20211023140104 41 360 4.0 10.0 0.00 0.00 0.00 66 1009.2
20211023134556 40 0 3.0 10.0 0.00 0.00 0.00 67 1008.8
20211023133114 39 360 2.0 6.0 0.00 0.00 0.00 69 1008.6
20211023131548 37 360 3.0 9.0 0.00 0.00 0.00 73 1008.5
20211023130107 36 360 0.0 2.0 0.00 0.00 0.00 78 1008.8
20211023124650 35 0 0.0 3.0 0.00 0.00 0.00 78 1009.1
20211023123224 34 360 1.0 3.0 0.00 0.00 0.00 79 1009.0
20211023121611 33 0 0.0 1.0 0.00 0.00 0.00 79 1008.8
20211023120139 32 0 0.0 1.0 0.00 0.00 0.00 78 1008.6
20211023114629 32 360 0.0 3.0 0.00 0.00 0.00 78 1008.5
20211023113100 32 360 0.0 2.0 0.00 0.00 0.00 78 1008.6
20211023111610 32 0 0.0 2.0 0.00 0.00 0.00 77 1008.8
20211023110117 33 0 0.0 2.0 0.00 0.00 0.00 78 1008.9
20211023104616 33 360 0.0 1.0 0.00 0.00 0.00 78 1008.8
20211023103119 34 360 0.0 2.0 0.00 0.00 0.00 78 1008.6
20211023101757 34 0 0.0 2.0 0.00 0.00 0.00 78 1008.4
20211023100134 34 0 0.0 2.0 0.00 0.00 0.00 78 1008.3
20211023094605 33 360 0.0 2.0 0.00 0.00 0.00 78 1008.3
20211023093141 32 360 0.0 2.0 0.00 0.00 0.00 77 1008.5
20211023091622 32 360 0.0 2.0 0.00 0.00 0.00 77 1008.8
20211023090131 32 0 0.0 1.0 0.00 0.00 0.00 77 1008.7
20211023084646 32 0 0.0 2.0 0.00 0.04 0.00 76 1008.3
20211023083114 33 0 0.0 1.0 0.00 0.04 0.00 77 1008.3
20211023081611 33 360 0.0 2.0 0.00 0.04 0.00 76 1008.3
20211023080137 33 0 0.0 2.0 0.00 0.04 0.00 76 1008.1
20211023074706 34 0 0.0 1.0 0.00 0.10 0.00 76 1008.4
20211023073111 34 0 0.0 1.0 0.00 0.10 0.00 76 1008.4
20211023071828 35 0 0.0 1.0 0.00 0.10 0.00 75 1008.6
20211023070210 35 0 0.0 1.0 0.00 0.10 0.00 75 1008.5
20211023064557 36 0 0.0 1.0 0.00 0.10 0.00 75 1008.6
20211023063126 37 0 0.0 1.0 0.00 0.10 0.00 75 1008.5
20211023061605 37 0 0.0 2.0 0.00 0.10 0.00 75 1008.5
20211023060057 38 0 0.0 2.0 0.00 0.10 0.00 75 1008.4
20211023054840 38 0 0.0 2.0 0.00 0.10 0.00 75 1008.6
20211023053157 39 0 0.0 2.0 0.00 0.10 0.00 74 1008.2
20211023051633 39 360 0.0 2.0 0.00 0.10 0.00 74 1008.2
20211023050123 40 0 0.0 2.0 0.00 0.10 0.00 73 1008.1
20211023044609 41 0 0.0 2.0 0.00 0.10 0.00 73 1008.1
20211023043254 42 0 0.0 2.0 0.00 0.10 0.00 72 1007.9
20211023041559 42 0 0.0 4.0 0.00 0.10 0.00 72 1008.0
20211023040146 43 0 1.0 5.0 0.00 0.10 0.00 73 1008.1
20211023034551 44 0 0.0 4.0 0.00 0.10 0.10 72 1008.0
20211023033154 44 270 0.0 4.0 0.00 0.10 0.10 72 1008.1
20211023031611 45 271 1.0 4.0 0.00 0.10 0.10 73 1007.9
20211023030247 45 0 1.0 7.0 0.00 0.10 0.10 72 1008.2
20211023024559 46 0 0.0 2.0 0.00 0.10 0.10 73 1007.8
20211023023118 47 284 1.0 3.0 0.00 0.10 0.10 72 1007.4
20211023021640 47 0 0.0 7.0 0.00 0.10 0.10 72 1007.4
20211023020139 47 261 2.0 9.0 0.00 0.10 0.10 73 1007.1
20211023014641 47 304 0.0 4.0 0.00 0.10 0.10 75 1007.0
20211023013214 46 0 0.0 2.0 0.00 0.10 0.10 75 1007.1
20211023011740 46 0 0.0 1.0 0.00 0.10 0.10 74 1007.1
20211023010113 47 0 0.0 1.0 0.00 0.10 0.10 74 1007.1
20211023004601 47 0 0.0 2.0 0.00 0.10 0.10 73 1007.2
20211023003123 48 300 0.0 2.0 0.00 0.10 0.10 73 1007.0
20211023001620 48 0 0.0 1.0 0.00 0.10 0.10 73 1006.8
20211023000133 49 0 0.0 1.0 0.00 0.10 0.10 73 1006.6
20211022234705 50 0 0.0 1.0 0.00 0.10 0.10 72 1006.3
20211022233054 50 0 0.0 2.0 0.00 0.10 0.10 71 1006.3
20211022231703 51 0 0.0 1.0 0.00 0.10 0.10 69 1006.2
20211022230208 52 0 0.0 2.0 0.00 0.10 0.10 69 1006.1
20211022224621 54 360 0.0 1.0 0.00 0.10 0.10 67 1005.9
20211022223319 54 360 0.0 3.0 0.00 0.10 0.10 66 1005.7
20211022221640 55 360 0.0 9.0 0.00 0.10 0.10 65 1005.8
20211022220142 56 0 1.0 3.0 0.00 0.10 0.10 67 1005.6
20211022214647 56 0 1.0 5.0 0.00 0.10 0.10 66 1005.5
20211022213205 56 360 1.0 5.0 0.00 0.10 0.10 66 1005.4
20211022211624 57 360 0.0 1.0 0.00 0.10 0.10 66 1005.4
20211022210227 57 360 1.0 8.0 0.00 0.10 0.10 65 1005.2
20211022204656 58 360 0.0 4.0 0.00 0.10 0.10 66 1005.2
20211022203052 58 360 3.0 10.0 0.00 0.10 0.10 64 1005.2
20211022201550 58 360 2.0 10.0 0.00 0.10 0.10 65 1005.0
20211022200106 58 0 0.0 12.0 0.00 0.10 0.10 66 1004.8
20211022194628 59 360 1.0 13.0 0.00 0.11 0.10 64 1004.5
20211022193103 59 360 2.0 8.0 0.00 0.11 0.10 65 1004.3
20211022191627 59 360 4.0 10.0 0.00 0.11 0.10 63 1004.0
20211022190056 58 360 2.0 10.0 0.00 0.11 0.10 66 1003.9
20211022184629 59 360 3.0 10.0 0.00 0.12 0.10 65 1003.8
20211022183113 59 360 4.0 8.0 0.00 0.12 0.10 65 1003.8
20211022181600 59 360 5.0 12.0 0.00 0.12 0.10 63 1004.0
20211022180230 59 360 3.0 10.0 0.00 0.12 0.10 66 1004.1
20211022174608 59 360 4.0 10.0 0.00 0.12 0.10 67 1004.1
20211022173144 59 360 4.0 11.0 0.00 0.12 0.10 67 1004.0
20211022171654 58 0 3.0 10.0 0.00 0.12 0.10 72 1003.8
20211022170123 58 360 3.0 10.0 0.00 0.12 0.10 72 1003.6